Terminal Aerodrome Forecast
Issued by NWS

Home | Current Version | Previous Version | Text Only | Print | Product List | Glossary On
Versions: 1 2 3 4 5 6 7 8 9 10 11 12 13
499
FTUS44 KCRP 052331
TAFLRD
TAF
KLRD 052331Z 0600/0624 14008KT P6SM BKN060
     FM060400 05005KT P6SM BKN050
     FM061000 31010KT P6SM FEW050
     FM061600 33016G25KT P6SM SKC=

USA.gov is the U.S. government's official web portal to all federal, state and local government web resources and services.